FW6001 Weather Reports


time (UTC)temp
F
wind
direction
speed
knots
gust
knots
rain 1hr
in
rain 24hr
in
rain mn
in
humidity
%
barometer
mb
20260508033047 48 180 0.0 2.6 0.00 0.00 0.00 87 1002.3
20260508031556 48 176 2.6 7.0 0.00 0.00 0.00 87 1002.2
20260508030141 48 235 0.9 6.1 0.00 0.00 0.00 87 1002.2
20260508024541 48 188 2.6 9.6 0.00 0.00 0.00 88 1002.3
20260508023043 48 235 0.0 6.1 0.00 0.00 0.00 88 1002.6
20260508021538 48 286 1.7 9.6 0.00 0.00 0.00 88 1002.2
20260508020035 49 192 0.0 5.2 0.00 0.00 0.00 88 1002.6
20260508013033 49 238 0.9 7.0 0.00 0.00 0.00 87 1002.6
20260508011533 49 144 0.9 7.8 0.00 0.00 0.00 87 1002.5
20260508010039 49 142 0.0 10.4 0.00 0.00 0.00 88 1002.4
20260508004525 50 211 3.5 8.7 0.00 0.00 0.00 88 1002.3
20260508003024 50 207 3.5 8.7 0.00 0.00 0.00 89 1002.2
20260508001531 50 221 3.5 7.8 0.00 0.00 0.00 89 1002.1
20260508000021 50 196 1.7 6.1 0.00 0.00 0.00 89 1002.0
20260507234519 52 211 0.0 2.6 0.00 0.00 0.00 92 1001.5
20260507233015 52 211 0.0 2.6 0.00 0.00 0.00 89 1001.5
20260507231514 52 210 0.9 5.2 0.00 0.00 0.00 89 1001.4
20260507230014 53 209 0.9 4.3 0.00 0.00 0.00 89 1001.5
20260507224512 53 202 0.9 3.5 0.00 0.00 0.00 89 1001.5
20260507223012 53 193 0.9 4.3 0.00 0.00 0.00 89 1001.5
20260507221518 53 200 0.0 4.3 0.00 0.00 0.00 89 1001.6
20260507220013 53 203 0.9 4.3 0.00 0.00 0.00 89 1001.6
20260507214510 53 221 1.7 7.0 0.00 0.00 0.00 89 1001.5
20260507213018 53 222 0.9 3.5 0.00 0.00 0.00 90 1001.7
20260507211509 53 191 0.0 4.3 0.00 0.00 0.00 89 1001.7
20260507210122 52 242 0.9 7.0 0.00 0.00 0.00 89 1001.8
20260507204505 53 232 0.0 1.7 0.00 0.00 0.00 89 1001.6
20260507203013 53 232 0.0 2.6 0.00 0.00 0.00 89 1001.4
20260507201513 53 232 0.0 4.3 0.00 0.00 0.00 88 1001.7
20260507200110 53 247 0.9 4.3 0.00 0.00 0.00 88 1002.2
20260507194557 53 246 1.7 6.1 0.00 0.00 0.00 88 1003.3
20260507193116 54 244 1.7 6.1 0.00 0.00 0.00 88 1003.6
20260507191559 54 246 1.7 7.8 0.00 0.00 0.00 87 1003.5
20260507190051 55 256 0.0 7.8 0.00 0.00 0.00 87 1003.8
20260507184549 55 262 0.9 7.8 0.00 0.00 0.00 87 1003.8
20260507183057 56 275 2.6 14.8 0.00 0.00 0.00 86 1004.0
20260507181545 57 236 0.9 6.1 0.00 0.00 0.00 85 1004.0
20260507180045 58 196 3.5 8.7 0.00 0.00 0.00 83 1003.8
20260507174542 59 194 3.5 13.9 0.00 0.00 0.00 81 1003.5
20260507173103 60 276 3.5 11.3 0.00 0.00 0.00 80 1003.0
20260507171545 60 188 4.3 13.9 0.00 0.00 0.00 80 1003.5
20260507170046 60 341 3.5 14.8 0.00 0.00 0.00 79 1003.8
20260507164539 61 270 3.5 10.4 0.00 0.00 0.00 77 1003.8
20260507163039 61 189 5.2 14.8 0.00 0.00 0.00 76 1003.9
20260507161535 62 200 3.5 17.4 0.00 0.00 0.00 76 1004.5
20260507160055 62 284 7.0 15.6 0.00 0.00 0.00 74 1004.7
20260507154531 63 270 4.3 20.9 0.00 0.00 0.00 74 1004.8
20260507153032 63 250 6.1 12.2 0.00 0.00 0.00 74 1005.4
20260507151526 63 284 5.2 12.2 0.00 0.00 0.00 74 1005.9
20260507150025 62 285 7.0 16.5 0.00 0.00 0.00 75 1006.0
20260507144529 61 297 5.2 19.1 0.00 0.00 0.00 75 1006.3
20260507143019 62 201 3.5 16.5 0.00 0.00 0.00 75 1006.6
20260507141523 61 244 5.2 20.0 0.00 0.00 0.00 76 1006.7
20260507140016 61 261 4.3 18.2 0.00 0.00 0.00 76 1006.9
20260507134515 61 218 4.3 21.7 0.00 0.00 0.00 76 1006.9
20260507133013 61 289 5.2 19.1 0.00 0.00 0.00 77 1007.3
20260507131510 62 269 4.3 17.4 0.00 0.00 0.00 76 1007.2
20260507130017 61 178 6.1 13.9 0.00 0.00 0.00 76 1007.3
20260507124501 60 292 3.5 25.2 0.00 0.00 0.00 78 1007.6
20260507123059 59 227 2.6 21.7 0.00 0.00 0.00 79 1007.5
20260507121558 58 267 2.6 12.2 0.00 0.00 0.00 80 1007.9
20260507120054 57 304 2.6 10.4 0.00 0.00 0.00 82 1008.1
20260507114558 57 224 4.3 15.6 0.00 0.00 0.00 81 1008.6
20260507113052 58 214 4.3 14.8 0.00 0.00 0.00 80 1008.8
20260507111558 57 271 5.2 16.5 0.00 0.00 0.00 80 1009.6
20260507110048 57 183 6.1 17.4 0.00 0.00 0.00 81 1009.0
20260507104545 56 258 3.5 12.2 0.00 0.00 0.00 82 1009.4
20260507103044 56 178 7.0 13.0 0.00 0.00 0.00 81 1010.0
20260507101553 56 270 1.7 10.4 0.00 0.00 0.00 82 1009.8
20260507100042 56 251 1.7 11.3 0.00 0.00 0.00 82 1009.7
20260507094542 56 289 2.6 12.2 0.00 0.00 0.00 82 1010.2
20260507093043 56 209 5.2 12.2 0.00 0.00 0.00 82 1011.1
20260507091538 56 162 1.7 7.8 0.00 0.00 0.00 83 1011.3
20260507090037 56 211 0.9 5.2 0.00 0.00 0.00 82 1011.1
20260507084533 56 231 1.7 7.0 0.00 0.00 0.00 82 1010.8
20260507083033 56 242 0.0 7.0 0.00 0.00 0.00 82 1010.9
20260507081536 56 252 0.9 3.5 0.00 0.00 0.00 81 1011.3
20260507080028 56 232 3.5 10.4 0.00 0.00 0.00 81 1011.6
20260507074526 56 243 2.6 7.8 0.00 0.00 0.00 81 1011.5
20260507073024 56 252 1.7 6.1 0.00 0.00 0.00 80 1011.8
20260507071526 56 253 0.0 8.7 0.00 0.00 0.00 79 1012.1
20260507070020 57 211 1.7 7.8 0.00 0.00 0.00 78 1012.2
20260507064517 58 264 1.7 9.6 0.00 0.00 0.00 77 1012.1
20260507063016 58 253 5.2 11.3 0.00 0.00 0.00 76 1012.3
20260507061515 58 260 2.6 8.7 0.00 0.00 0.00 75 1012.3
20260507060012 57 240 4.3 8.7 0.00 0.00 0.00 74 1012.3
20260507054509 57 264 2.6 7.8 0.00 0.00 0.00 72 1012.5
20260507053009 57 206 3.5 8.7 0.00 0.00 0.00 72 1012.8
20260507051504 57 194 4.3 17.4 0.00 0.00 0.00 74 1013.1
20260507050007 57 193 3.5 11.3 0.00 0.00 0.00 75 1013.4
20260507044559 57 227 4.3 12.2 0.00 0.00 0.00 75 1013.6
20260507043101 57 215 6.1 16.5 0.00 0.00 0.00 75 1013.8
20260507041605 57 175 4.3 11.3 0.00 0.00 0.00 75 1014.1
20260507040057 57 201 6.1 12.2 0.00 0.00 0.00 75 1014.2
20260507034555 56 250 4.3 13.9 0.00 0.00 0.00 75 1014.3